DFSRS EDDG-EDLW

Flight info

Callsign DFSRS
Flight time 0h 17m
Altitude 4000
Route VFR
Aircraft PA46/L-C/L2

Departure

Time 2026-05-04 15:57
Airport Münster Osnabrück Airport (EDDG)

Arrival

Time 2026-05-04 16:14
Airport Dortmund Airport (EDLW)
Time Latitude Longitude Altitude Speed Heading
2026-05-04 15:48 52.13196 7.68697 162 ft 0 kts 341°
2026-05-04 15:53 52.13196 7.68696 162 ft 1 kts 341°
2026-05-04 15:53 52.13239 7.68674 162 ft 12 kts 343°
2026-05-04 15:53 52.13272 7.68761 162 ft 11 kts 71°
2026-05-04 15:53 52.13315 7.68865 162 ft 13 kts 359°
2026-05-04 15:54 52.13348 7.68756 162 ft 13 kts 250°
2026-05-04 15:54 52.13316 7.68605 162 ft 15 kts 252°
2026-05-04 15:54 52.13281 7.68444 162 ft 15 kts 251°
2026-05-04 15:54 52.13284 7.68302 162 ft 11 kts 333°
2026-05-04 15:55 52.13346 7.68272 163 ft 10 kts 340°
2026-05-04 15:55 52.13410 7.68241 163 ft 7 kts 327°
2026-05-04 15:55 52.13412 7.68229 163 ft 0 kts 250°
2026-05-04 15:56 52.13402 7.68182 163 ft 23 kts 251°
2026-05-04 15:56 52.13277 7.67599 161 ft 84 kts 248°
2026-05-04 15:56 52.13056 7.66544 392 ft 101 kts 250°
2026-05-04 15:57 52.12605 7.65571 702 ft 121 kts 219°
2026-05-04 15:57 52.11843 7.64742 1005 ft 138 kts 216°
2026-05-04 15:57 52.10983 7.63820 1137 ft 161 kts 214°
2026-05-04 15:57 52.09959 7.62936 1283 ft 172 kts 205°
2026-05-04 15:58 52.08798 7.62194 1265 ft 187 kts 199°
2026-05-04 15:58 52.07526 7.61628 1329 ft 190 kts 192°
2026-05-04 15:58 52.06215 7.61264 1330 ft 193 kts 189°
2026-05-04 15:58 52.04868 7.61034 1265 ft 192 kts 185°
2026-05-04 15:59 52.03568 7.60990 1268 ft 186 kts 179°
2026-05-04 15:59 52.02302 7.61064 1369 ft 178 kts 178°
2026-05-04 15:59 52.01091 7.61085 1554 ft 170 kts 183°
2026-05-04 15:59 51.99920 7.61029 1727 ft 167 kts 181°
2026-05-04 16:00 51.98759 7.61028 1967 ft 167 kts 180°
2026-05-04 16:00 51.97553 7.61035 2000 ft 179 kts 181°
2026-05-04 16:00 51.96279 7.61041 2007 ft 186 kts 180°
2026-05-04 16:00 51.94969 7.61046 2010 ft 189 kts 181°
2026-05-04 16:01 51.93647 7.61052 2008 ft 191 kts 180°
2026-05-04 16:01 51.92314 7.61056 2010 ft 192 kts 181°
2026-05-04 16:01 51.90970 7.61065 2008 ft 193 kts 181°
2026-05-04 16:01 51.89625 7.61071 2007 ft 194 kts 180°
2026-05-04 16:02 51.88276 7.61076 2007 ft 194 kts 181°
2026-05-04 16:02 51.86935 7.61078 2005 ft 192 kts 181°
2026-05-04 16:02 51.84283 7.61095 2007 ft 190 kts 183°
2026-05-04 16:03 51.82982 7.61098 2002 ft 189 kts 181°
2026-05-04 16:03 51.81672 7.61101 1999 ft 187 kts 181°
2026-05-04 16:03 51.80373 7.61108 1997 ft 187 kts 181°
2026-05-04 16:03 51.79062 7.61115 2006 ft 185 kts 181°
2026-05-04 16:04 51.77786 7.61117 2011 ft 185 kts 181°
2026-05-04 16:04 51.75186 7.61129 2005 ft 188 kts 181°
2026-05-04 16:04 51.73872 7.61134 2008 ft 189 kts 181°
2026-05-04 16:05 51.72563 7.61141 2005 ft 188 kts 181°
2026-05-04 16:05 51.71254 7.61147 2004 ft 187 kts 180°
2026-05-04 16:05 51.68690 7.61157 2003 ft 182 kts 181°
2026-05-04 16:06 51.67437 7.61163 1995 ft 179 kts 181°
2026-05-04 16:06 51.64127 7.61173 1990 ft 179 kts 182°
2026-05-04 16:07 51.62465 7.61183 1994 ft 177 kts 181°
2026-05-04 16:07 51.58942 7.61332 1807 ft 166 kts 179°
2026-05-04 16:08 51.57836 7.61491 1729 ft 152 kts 171°
2026-05-04 16:08 51.55342 7.62563 1218 ft 110 kts 167°
2026-05-04 16:09 51.53913 7.62493 1038 ft 110 kts 240°
2026-05-04 16:09 51.54823 7.61640 908 ft 117 kts 53°
2026-05-04 16:10 51.54198 7.63463 817 ft 104 kts 159°
2026-05-04 16:11 51.52423 7.62845 508 ft 90 kts 234°
2026-05-04 16:11 51.52117 7.62028 411 ft 75 kts 240°
2026-05-04 16:12 51.50809 7.59474 1074 ft 126 kts 179°
2026-05-04 16:12 51.50391 7.63346 1198 ft 153 kts 63°
2026-05-04 16:13 51.51795 7.63779 852 ft 102 kts 307°
2026-05-04 16:13 51.52064 7.61906 428 ft 87 kts 243°
2026-05-04 16:14 51.51645 7.60692 420 ft 30 kts 241°
2026-05-04 16:14 51.51526 7.60703 416 ft 11 kts 84°
2026-05-04 16:15 51.51533 7.61061 429 ft 9 kts 167°
2026-05-04 16:16 51.51410 7.60769 435 ft 27 kts 239°
2026-05-04 16:16 51.51198 7.60173 450 ft 11 kts 226°
2026-05-04 16:17 51.51205 7.60337 454 ft 8 kts 86°
2026-05-04 16:18 51.51198 7.60396 459 ft 0 kts 108°
2026-05-04 16:19 51.51198 7.60395 459 ft 0 kts 108°
2026-05-04 16:26 51.51198 7.60394 459 ft 0 kts 107°
2026-05-04 16:33 51.51198 7.60393 459 ft 0 kts 105°
2026-05-04 16:40 51.51198 7.60392 459 ft 0 kts 104°
2026-05-04 16:46 51.51198 7.60391 458 ft 0 kts 103°
2026-05-04 16:52 51.51198 7.60390 458 ft 0 kts 101°
2026-05-04 16:53 51.51199 7.60390 458 ft 0 kts 101°
2026-05-04 16:59 51.51199 7.60389 458 ft 0 kts 100°
2026-05-04 17:05 51.51199 7.60388 431 ft 0 kts 98°
2026-05-04 17:10 51.51199 7.60387 458 ft 0 kts 97°
2026-05-04 17:15 51.51199 7.60386 458 ft 0 kts 96°
2026-05-04 17:20 51.51199 7.60385 458 ft 0 kts 94°